Regional Weather Roundup
Issued by NWS Newport/Morehead, NC

Current Version | Previous Version | Graphics & Text | Print | Product List | Glossary On
Versions: 1 2 3 4 5 6 7 8 9 10 11 12 13 14 15 16 17 18 19 20 21 22 23 24 25 26 27 28 29 30 31 32 33 34 35 36 37 38 39 40 41 42 43 44 45 46 47 48 49 50
000 ASUS42 KMHX 251013 RWRMHX WEATHER ROUNDUP FOR EASTERN NORTH CAROLINA NATIONAL WEATHER SERVICE NEWPORT/MOREHEAD CITY NC 600 AM EDT MON MAY 25 2015 NOTE: "FAIR" INDICATES FEW OR NO CLOUDS BELOW 12,000 FEET WITH NO SIGNIFICANT WEATHER AND/OR OBSTRUCTIONS TO VISIBILITY NCZ015>017-031-032-045>047-102-103-251100- NORTH COAST CITY SKY/WX TMP DP RH WIND PRES REMARKS EDENTON CLEAR 65 60 85 SW5 30.34S ELIZABETH CITY CLEAR 61 59 93 CALM 30.34S KITTY HAWK SUNNY 64 59 83 CALM 30.34R MANTEO CLEAR 58 57 95 CALM 30.35R $$ NCZ045>047-081-094-103-104-251100- CENTRAL COAST CITY SKY/WX TMP DP RH WIND PRES REMARKS FRISCO CLEAR 55 53 93 E5 30.34S SWANQUARTER N/A 61 N/A N/A E1 30.30S $$ NCZ095-097-098-100-101-251100- SOUTHERN COAST CITY SKY/WX TMP DP RH WIND PRES REMARKS BEAUFORT CLEAR 61 58 90 SE5 30.34R CEDAR ISLAND N/A 63 N/A N/A S2 30.36S JACKSONVILLE CLEAR 59 57 93 CALM 30.32F PINEY ISLAND SUNNY N/A N/A N/A CALM 30.34R WILMINGTON PTCLDY 60 58 92 CALM 30.32R $$ NCZ011>013-027>030-043-044-078>080-089-090>093-098-251100- COASTAL PLAIN CITY SKY/WX TMP DP RH WIND PRES REMARKS AHOSKIE CLEAR 55 53 96 CALM 30.35R FOG CLINTON CLEAR 58 58 100 CALM 30.34R ELIZABETHTOWN CLEAR 58 57 99 CALM 30.33R GOLDSBORO CLEAR 58 56 93 CALM 30.31S GREENVILLE CLEAR 59 57 94 CALM 30.34S HAVELOCK CLEAR 57 53 86 CALM 30.34F KENANSVILLE CLEAR 55 53 95 CALM 30.34S FOG KINSTON CLEAR 57 56 97 CALM 30.34S NEW BERN CLEAR 58 55 90 CALM 30.35S RICHLANDS CLEAR 55 52 88 CALM 30.34R ROCKY MOUNT CLEAR 59 57 93 CALM 30.34R FOG WASHINGTON CLEAR 58 56 93 CALM 30.34S WHITEVILLE CLEAR 56 55 95 CALM 30.32R $$ AMZ130-135-150-152-154-156-158-170-250-252-270-ANZ085-086-088-633-658-670-251100- MARINE OBSERVATIONS STATION/POSITION TIME TEMP WIND PRES WAVE SWELL AIR SEA DIR/SP/G HT/PER HT/PER (UTC) (F) (DEG/KT/KT) (MB) (FT/S) (FT/S) CHESAPEAKE LIGHT 0900 65 200/ 14/ 15 1027.4 64 E VA BEACH 0950 63 61 190/ 6/ 6 1027.2 1/ 6 2/ 6 DUCK 0900 66 62 170/ 5/ 6 1026.3 2 E DUCK 0911 63 N/A 1/ 8 OREGON INLET 0900 64 73 130/ 4/ 5 1027.5 13E OREGON INLT 1000 65 N/A 2/ 9 HATTERAS CG 0900 68 74 80/ 2/ 2 1026.9 DIAMOND BUOY 0950 72 77 150/ 6/ 8 1027.7 2/ 8 2/ 8 CAPE LOOKOUT 1000 71 120/ 8/ 9 1027.0 BEAUFORT LAB 0900 70 74 140/ 4/ 5 1026.2 27 SE WRIGHTSVLE 0900 70 76 160/ 8/ 10 N/A 5 SE WRIGHTSVLE 0908 73 76 140/ 8/ 12 1026.4 225 S CAPE HAT 0950 73 74 100/ 12/ 14 1026.4 4/ 6 3/ 6 41 SE CHARLESTON 0950 74 75 100/ 12/ 14 1024.9 5/ 8 3/ 8 $$

USA.gov is the U.S. government's official web portal to all federal, state and local government web resources and services.